Left ArrowRight Arrow

39.71368, -82.59933

Hourly Observations for June 17, 2024

Temp ( °F °C ) Dew Point ( °F °C ) Humidity (%) Winds ( mph kmh ) Pressure ( in mb ) Visibility ( mi km ) Precip ( " mm )
12:53 am 00:53 Clear 64 17.8 63 17.2 96 96 Calm 30.04 1017 10 16 0.00 0.00
1:53 am 01:53 Clear 64 17.8 63 17.2 96 96 Calm 30.03 1017 10 16 0.00 0.00
2:53 am 02:53 Clear 64 17.8 63 17.2 96 96 Calm 30.04 1017 10 16 0.00 0.00
3:53 am 03:53 Clear 64 17.8 63 17.2 96 96 S 3 6 30.04 1017 10 16 0.00 0.00
4:53 am 04:53 Clear 66 18.9 64 17.8 93 93 Calm 30.04 1017 10 16 0.00 0.00
5:53 am 05:53 Clear 65 18.3 64 17.8 97 97 Calm 30.05 1018 10 16 0.00 0.00
6:53 am 06:53 Sunny 69 20.6 66 18.9 90 90 SE 3 6 30.06 1018 10 16 0.00 0.00
7:53 am 07:53 Sunny 76 24.4 69 20.6 79 79 Calm 30.08 1019 10 16 0.00 0.00
8:53 am 08:53 Sunny 80 26.7 72 22.2 76 76 VRB 7 11 30.09 1019 10 16 0.00 0.00
9:53 am 09:53 Sunny 83 28.3 72 22.2 70 70 SW 9 15 30.10 1019 10 16 0.00 0.00
10:53 am 10:53 Sunny 85 29.4 72 22.2 65 65 WSW 6 9 30.10 1019 10 16 0.00 0.00
11:53 am 11:53 Sunny 87 30.6 73 22.8 63 63 SW 9 15 30.10 1019 10 16 0.00 0.00
12:53 pm 12:53 Sunny 90 32.2 72 22.2 56 56 WSW 9 15 30.08 1019 10 16 0.00 0.00
1:53 pm 13:53 Mostly Cloudy 92 33.3 73 22.8 54 54 S 6 9 30.06 1018 10 16 0.00 0.00
2:24 pm 14:24 Mostly Cloudy with Heavy Rain 83 28.3 74 23.3 74 74 SSW 13 20 30.04 1017 2 3 0.07 1.78
2:32 pm 14:32 Cloudy with Nearby Thunderstorms 80 26.7 73 22.8 79 79 S 18 30 30.05 1018 1 1 0.24 6.10
2:42 pm 14:42 Mostly Cloudy with Nearby Thunderstorms 80 26.7 72 22.2 76 76 ESE 8 13 30.04 1017 4 6 0.24 6.10
2:53 pm 14:53 Mostly Cloudy with Rain 79 26.1 72 22.2 79 79 S 6 9 30.06 1018 4 6 0.27 6.86
3:07 pm 15:07 Partly Cloudy with Nearby Thunderstorms 86 30 75 23.9 70 70 Calm 30.02 1017 10 16 0.01 0.13
3:21 pm 15:21 Mostly Sunny 88 31.1 75 23.9 66 66 SSE 3 6 30.02 1016 10 16 0.01 0.13
3:45 pm 15:45 Sunny with Nearby Thunderstorms 87 30.6 78 25.6 75 75 E 6 9 30.02 1016 10 16 0.01 0.13
3:53 pm 15:53 Sunny with Nearby Thunderstorms 85 29.4 77 25 77 77 E 6 9 30.05 1018 10 16 0.01 0.13
4:13 pm 16:13 Mostly Cloudy with Strong Thunderstorms 80 26.7 75 23.9 85 85 SW 14 22 30.04 1017 2 3 0.10 2.54
4:20 pm 16:20 Mostly Cloudy with Strong Thunderstorms 76 24.4 72 22.2 88 88 VRB 7 11 30.12 1020 1 1 0.24 6.10
4:25 pm 16:25 Mostly Cloudy with Strong Thunderstorms 72 22.2 67 19.4 84 84 undefined N/A 30.16 1021 0 0 0.00 0.00
4:35 pm 16:35 Cloudy with Strong Thunderstorms 70 21.1 66 18.9 87 87 SE 8 13 30.10 1019 1 2 0.00 0.00
4:40 pm 16:40 Cloudy with Thunderstorms 71 21.7 66 18.9 84 84 ESE 8 13 30.07 1018 3 4 0.00 0.00
4:53 pm 16:53 Mostly Cloudy with Thunderstorms 69 20.6 67 19.4 93 93 ENE 12 19 30.09 1019 10 16 0.00 0.00
5:12 pm 17:12 Sunny with Nearby Thunderstorms 71 21.7 69 20.6 93 93 SW 10 17 30.06 1018 10 16 0.00 0.00
5:48 pm 17:48 Mostly Cloudy with Light Rain 72 22 70 21 94 94 SE 8 13 30.06 1018 10 16 0.01 0.13
5:53 pm 17:53 Mostly Cloudy with Light Rain 72 22.2 71 21.7 97 97 SE 7 11 30.08 1019 10 16 0.01 0.13
6:53 pm 18:53 Sunny 76 24.4 71 21.7 85 85 SE 8 13 30.06 1018 10 16 0.01 0.13
7:53 pm 19:53 Sunny 77 25 71 21.7 82 82 SSE 6 9 30.06 1018 10 16 0.00 0.00
8:53 pm 20:53 Sunny 74 23.3 72 22.2 94 94 Calm 30.06 1018 10 16 0.00 0.00
9:53 pm 21:53 Clear 73 22.8 72 22.2 96 96 SSE 3 6 30.07 1018 10 16 0.00 0.00
10:53 pm 22:53 Clear 73 22.8 72 22.2 96 96 SE 6 9 30.08 1019 10 16 0.00 0.00
11:53 pm 23:53 Clear 72 22.2 71 21.7 97 97 Calm 30.09 1019 10 16 0.00 0.00

Powered by Vaisala Xweather